Theta_e
345 345 344 341 340 339 338 339 340 339 339 337 336 335 335 334 334 334 334 334 333 332 329 329 328 328 327 325 323 323 324 323
344 342 342 342 340 337 336 336 337 337 337 334 333 333 334 332 334 333 331 332 331 328 327 326 327 326 325 325 324 326 324 323
342 340 339 339 336 336 334 336 336 335 335 333 330 334 334 332 330 329 329 329 327 326 324 325 325 325 324 323 325 322 323 322
340 339 338 335 330 334 334 333 336 336 336 336 338 339 337 333 328 326 325 324 324 323 323 324 322 321 320 322 319 320 320 320
336 337 335 331 331 332 332 336 337 339 340 340 340 340 340 337 330 330 329 325 325 323 321 320 321 319 317 317 317 317 317 316
330 331 333 333 331 332 334 336 338 339 340 340 340 338 337 333 330 329 328 325 323 321 321 320 318 317 316 316 316 315 315 315
328 330 331 332 334 335 336 338 338 338 339 337 338 335 332 329 327 326 325 325 322 321 319 317 317 316 315 315 314 315 315 315
330 329 331 332 334 336 336 336 337 337 331 330 330 331 331 326 323 323 324 322 320 318 316 315 315 315 314 315 314 314 314 314
330 331 332 333 334 333 330 328 329 329 327 325 327 326 323 323 323 321 317 316 315 314 314 315 315 314 314 313 313 313 312 312
332 332 333 331 328 326 325 324 325 324 323 322 321 320 320 318 317 314 315 315 315 314 314 313 311 311 309 308 309 309 308 311
331 333 330 324 322 321 324 321 320 319 317 317 317 314 314 315 315 315 315 314 314 312 310 309 307 307 306 305 306 306 306 307
332 332 327 325 318 319 319 320 318 317 317 316 315 315 315 315 314 315 314 312 310 308 307 307 306 305 303 302 305 305 306 308
332 330 325 325 322 316 316 315 314 314 315 315 315 314 314 315 315 313 311 309 308 308 306 305 304 305 303 302 303 305 308 307
331 329 330 329 326 323 321 320 320 318 315 314 314 313 313 313 312 311 309 308 308 307 305 302 302 303 300 299 296 299 302 305
329 330 329 326 324 322 321 320 316 314 313 313 313 313 312 312 311 310 309 307 305 305 304 302 299 301 302 298 294 292 295 299
330 326 323 322 322 320 318 318 316 317 317 315 313 312 311 310 309 309 308 307 306 304 303 302 301 298 299 299 299 297 291 290
327 324 320 319 319 318 318 316 315 314 313 311 313 312 310 309 309 309 308 307 306 305 303 303 301 298 297 296 296 295 295 291
321 318 317 317 317 317 316 314 312 312 311 308 307 308 308 309 309 309 308 307 305 304 303 302 300 299 297 295 293 292 291 290
317 316 314 316 315 314 312 310 308 306 306 306 306 306 306 306 308 308 307 306 305 303 302 301 300 297 296 294 295 294 293 292
316 315 313 313 312 310 309 308 310 309 308 307 305 303 304 306 306 305 305 305 304 303 301 300 300 298 295 295 294 293 293 292
Wind_Speed
12 13 11 8 8 9 9 8 8 7 8 9 9 9 10 10 9 9 8 9 9 9 10 10 10 10 10 9 7 7 9 7
12 12 12 11 11 9 8 8 8 7 7 8 9 8 8 6 8 9 8 8 9 11 10 10 8 9 9 9 8 11 10 8
8 10 9 7 9 9 8 7 7 7 7 6 7 4 5 6 9 8 10 10 10 10 10 9 7 6 8 8 11 8 9 7
10 9 8 7 6 8 6 7 6 5 4 5 2 2 3 5 7 9 9 7 8 9 7 2 7 8 7 5 7 8 6 7
9 8 8 7 6 5 4 4 4 4 3 2 2 2 2 2 3 3 3 1 2 3 4 6 8 7 8 7 9 9 6 6
10 9 8 6 5 5 5 3 3 1 2 1 2 3 2 1 2 3 1 3 3 4 4 5 7 7 8 9 9 9 7 6
10 10 9 7 6 5 4 3 4 4 3 4 1 2 3 3 2 2 2 2 3 3 4 5 7 8 8 9 10 10 9 7
10 9 8 7 7 6 5 4 3 3 2 3 2 3 3 3 4 3 2 3 4 5 7 7 7 8 10 10 10 10 10 9
11 9 8 7 7 8 6 5 4 3 3 1 5 4 4 4 1 3 5 5 6 4 5 6 8 9 11 11 10 9 8 9
12 10 12 11 9 7 4 1 4 2 3 3 4 4 3 4 4 4 4 4 4 6 6 8 9 9 9 10 10 10 8 7
15 14 14 8 5 5 3 1 3 3 3 4 5 6 5 4 4 5 4 4 5 6 7 7 9 9 10 10 10 10 10 6
17 14 12 8 7 3 2 3 4 4 4 4 5 5 5 4 5 4 4 4 5 7 8 8 9 8 10 10 9 10 9 5
16 16 10 7 5 6 6 6 6 5 5 6 5 5 5 4 3 3 4 5 5 6 7 9 8 8 10 10 10 8 6 6
14 14 11 8 7 6 5 6 4 4 4 5 5 5 4 4 4 3 4 4 4 6 7 7 9 8 8 11 10 9 11 2
13 11 11 8 8 6 5 5 6 5 5 5 4 4 3 3 2 3 3 4 5 5 6 8 8 9 6 8 10 10 11 11
10 11 11 9 7 5 4 1 2 2 1 3 4 3 2 3 4 4 5 5 5 5 5 6 9 9 7 6 7 10 11 12
10 10 9 8 6 3 4 4 5 5 4 3 2 3 4 6 6 6 6 6 6 6 6 10 8 7 8 7 7 8 10 10
10 11 9 8 7 7 7 7 5 2 1 3 4 5 6 7 7 7 8 8 7 6 7 10 7 7 7 7 8 8 9 9
9 10 10 10 9 8 7 6 5 2 4 5 7 7 7 9 10 9 8 8 8 9 9 10 9 7 7 7 7 8 8 8
10 11 10 9 8 7 6 4 2 2 4 5 6 7 8 10 9 9 10 10 10 9 9 8 10 7 8 9 7 8 8 8
Wind_Direction
140 142 128 117 124 115 115 110 110 115 113 112 108 99 87 84 80 70 66 67 65 62 55 55 58 51 35 20 13 338 353 15
155 144 158 159 145 118 123 126 127 118 115 111 103 104 110 113 140 60 57 68 66 60 48 39 39 53 35 11 321 261 1 345
155 154 144 137 134 123 137 127 118 122 131 113 177 135 135 135 67 66 66 71 68 58 44 30 345 104 58 359 298 4 337 351
158 144 133 138 138 149 141 137 153 146 155 166 158 126 65 62 80 86 85 94 92 82 54 21 356 5 6 341 359 347 339 330
149 141 133 148 127 145 149 153 150 143 147 229 108 211 176 146 138 145 118 93 39 75 42 30 16 5 4 353 344 332 344 330
141 130 131 118 140 145 133 140 114 124 86 207 232 220 151 167 128 118 93 39 44 21 33 10 6 5 353 343 339 330 335 318
137 132 137 137 130 117 98 76 57 2 351 22 310 192 149 148 103 83 52 50 28 356 357 2 353 350 342 335 328 320 318 315
132 137 134 133 109 121 96 72 58 68 48 337 334 283 153 147 165 148 93 27 22 2 3 346 340 337 332 332 317 312 315 315
138 127 130 128 110 76 52 51 55 93 137 220 190 157 164 180 116 43 38 46 3 21 334 329 326 326 322 320 310 308 309 309
132 129 114 90 70 49 37 9 109 137 143 182 166 130 85 66 79 69 54 31 360 358 342 333 330 326 325 318 313 316 312 292
147 139 120 109 44 97 267 66 99 148 166 130 93 78 96 113 77 56 20 14 5 348 342 341 328 323 319 311 306 304 297 286
152 145 141 133 122 161 169 167 145 155 113 92 132 120 100 91 85 55 355 3 5 359 342 336 319 324 317 306 303 293 291 282
166 154 152 151 138 174 169 170 136 151 163 131 128 110 109 85 52 26 10 19 5 348 336 332 322 330 311 314 298 276 263 284
166 169 180 184 178 166 165 148 161 125 133 129 131 125 96 60 19 11 10 342 335 343 343 330 322 333 316 310 309 302 281 321
175 176 178 162 148 142 137 134 151 166 155 158 111 100 90 29 336 349 318 315 321 321 343 333 323 314 319 304 313 314 326 304
164 158 155 150 172 161 197 281 216 61 141 121 147 174 201 301 321 305 292 297 295 298 319 324 315 309 308 300 306 304 302 307
158 149 149 143 135 153 169 132 115 130 138 162 230 227 283 310 301 281 270 270 278 288 301 323 310 302 303 309 308 298 294 304
143 146 136 131 127 129 126 130 128 129 67 321 323 318 314 305 300 283 278 280 270 274 293 298 289 298 292 300 288 302 304 312
153 146 134 133 132 126 115 105 81 49 347 341 324 315 312 313 316 294 281 271 272 263 292 294 283 279 294 292 302 294 299 304
153 142 139 134 128 119 107 88 47 344 348 330 317 321 323 327 312 301 289 278 272 269 287 286 288 280 274 279 293 298 306 305